Southeast Iowa Regional Airport Burlington US
ICAO: KBRL
IATA: BRL
Category: Medium
Scheduled Services: Yes

Elevation: 698 ft
TransAlt. 18000 ft.

Airport Communications:
ASOS:118.025
CHICAGO CNTR:135.6
FORT DODGE RDO:122.65
CTAF/UNICOM:123

KBRL Zoom In..

If you have problems with the map follow the link
https://www.worldairports.se/pages/airport.php?
ICAO=KBRL

Runways:

(A) RW 12 length 5351 ft width 100 ft
---- / hdg 119

(B) RW 18 length 6701 ft width 150 ft
---- / hdg 179

(C) RW 30 length 5351 ft width 100 ft
---- / hdg 299

(D) RW 36 length 6701 ft width 150 ft
ILS 108.90 / hdg 359

Location; KBRL
Day. 16 / Time. 10.53 Zulu
* Altimeter: 29.94
* Temperature: 03° c. 37.4°f.
* Wind from: 310° Speed 08 kn.
Dewpoint: -02° c.
Visibility: 10 Statute Miles.
Clouds: Overcast 2300 ft.

KBRL 161053Z AUTO 31008KT 10SM OVC023 03/M02 A2994 RMK AO2 SLP145 T00281017


Wind From 310°
Speed 08 kn.

 
 
jpsmedia.com for Web Design worldairports.se 2018   terms of use